This is the latest recevied weather packets stored in our database for station/object KG4LKY-5. If no packets are shown the sender has not sent any weather packets the latest 10 day(s).
| Time | Temp. | Humidity | Pressure | Rain* | Wind** | Luminosity | Snow |
|---|---|---|---|---|---|---|---|
| 1777757559 | 12.22° C | 46% | 1016.3 hPa | 0 mm | - | - | - |
| 1777757259 | 11.67° C | 41% | 1016.2 hPa | 0 mm | - | - | - |
| 1777756959 | 12.78° C | 43% | 1016.2 hPa | 0 mm | - | - | - |
| 1777756658 | 12.22° C | 41% | 1016.2 hPa | 0 mm | - | - | - |
| 1777756358 | 13.33° C | 40% | 1016.1 hPa | 0 mm | - | - | - |
| 1777755757 | 13.33° C | 37% | 1016.1 hPa | 0 mm | - | - | - |
| 1777755458 | 13.33° C | 42% | 1016.1 hPa | 0 mm | - | - | - |
| 1777755157 | 13.33° C | 39% | 1016.1 hPa | 0 mm | - | - | - |
| 1777754556 | 13.33° C | 38% | 1016.1 hPa | 0 mm | - | - | - |
| 1777753956 | 13.33° C | 38% | 1016.1 hPa | 0 mm | - | - | - |
| 1777753655 | 12.78° C | 39% | 1016.2 hPa | 0 mm | - | - | - |
| 1777753355 | 13.33° C | 42% | 1016.2 hPa | 0 mm | - | - | - |
| 1777753055 | 13.33° C | 39% | 1016.2 hPa | 0 mm | - | - | - |
| 1777752755 | 13.89° C | 35% | 1016.3 hPa | 0 mm | - | - | - |
| 1777752454 | 14.44° C | 35% | 1016.4 hPa | 0 mm | - | - | - |
| 1777752153 | 13.33° C | 40% | 1016.4 hPa | 0 mm | - | - | - |
| 1777751852 | 13.33° C | 38% | 1016.4 hPa | 0 mm | - | - | - |
| 1777751552 | 13.33° C | 40% | 1016.4 hPa | 0 mm | - | - | - |
| 1777751252 | 13.89° C | 39% | 1016.4 hPa | 0 mm | - | - | - |
| 1777750951 | 13.89° C | 39% | 1016.4 hPa | 0 mm | - | - | - |
| 1777750653 | - | - | - | - | - | - | - |
| 1777750651 | 13.33° C | 39% | 1016.5 hPa | 0 mm | - | - | - |
| 1777750351 | 13.33° C | 42% | 1016.5 hPa | 0 mm | - | - | - |
| 1777749750 | 12.78° C | 39% | 1016.5 hPa | 0 mm | - | - | - |
| 1777749450 | 12.78° C | 34% | 1016.5 hPa | 0 mm | - | - | - |
* Rain since midnight (hover to see other rain measurements)
** Current wind speed in m/s (hover to see current wind gust speed)